Weather History for Hickory, NC

Change the Weather History Date:

Monday, August 26, 2013

  Actual Average Record
Temperature  
Mean Temperature 70 °F -  
Max Temperature 84 °F 85 °F 97 °F (1987)
Min Temperature 57 °F 65 °F 52 °F (1952)
Cooling Degree Days 4    
Growing Degree Days 20 (Base 50)    
Moisture  
Dew Point 59 °F    
Average Humidity 81    
Maximum Humidity 100    
Minimum Humidity 47    
Precipitation  
Precipitation 0.01 in - - ()
Sea Level Pressure  
Sea Level Pressure 30.24 in    
Wind  
Wind Speed 1 mph (SW)    
Max Wind Speed 6 mph    
Max Gust Speed -    
Visibility 7 miles    
Events Fog    
Averages and records for this station are not official NWS values.
T = Trace of Precipitation, MM = Missing Value Source: NWS Daily Summary

Daily Weather History Graph

Daily Weather History Graph

Search for Another Location

Airport:

Trip Planner

Search our weather history database for the weather conditions in past years. The results will help you decide how hot, cold, wet, or windy it might be!

Date:

Astronomy

Aug. 26, 2013 Rise Set
Actual Time 6:53 AM EDT 8:00 PM EDT
Civil Twilight 6:26 AM EDT 8:27 PM EDT
Nautical Twilight 5:55 AM EDT 8:58 PM EDT
Astronomical Twilight 5:22 AM EDT 9:30 PM EDT
Moon 11:24 PM EDT (8/26) 12:39 PM EDT (8/26)
Length of Visible Light 14h 00m
Length of Day
13h 07m
Waning Gibbous, 67% of the Moon is Illuminated
Aug 26
Waning Gibbous
Aug 28
Last Quarter
Sep 5
New
Sep 12
First Quarter
Sep 19
Full

Hourly Weather History & Observations

Time (EDT) Temp. Heat Index Dew Point Humidity Pressure Visibility Wind Dir Wind Speed Gust Speed Precip Events Conditions
12:53 AM 62.1 °F - 59.0 °F 90% 30.30 in 10.0 mi Calm Calm - N/A   Clear
1:53 AM 62.1 °F - 59.0 °F 90% 30.30 in 10.0 mi Calm Calm - N/A   Mostly Cloudy
2:53 AM 61.0 °F - 57.9 °F 90% 30.28 in 10.0 mi Calm Calm - 0.01 in   Partly Cloudy
3:53 AM 60.1 °F - 57.9 °F 93% 30.27 in 10.0 mi Calm Calm - N/A   Clear
4:44 AM 57.2 °F - 55.4 °F 94% 30.32 in 1.8 mi Calm Calm - N/A   Clear
4:46 AM 57.2 °F - 55.4 °F 94% 30.32 in 0.8 mi Calm Calm - N/A   Mist
4:53 AM 57.0 °F - 55.0 °F 93% 30.27 in 0.5 mi Calm Calm - N/A Fog Fog
4:57 AM 57.2 °F - 55.4 °F 94% 30.31 in 1.0 mi Calm Calm - N/A   Mist
5:00 AM 57.2 °F - 55.4 °F 94% 30.31 in 2.0 mi Calm Calm - N/A   Mostly Cloudy
5:12 AM 57.2 °F - 55.4 °F 94% 30.31 in 1.5 mi Calm Calm - N/A   Mostly Cloudy
5:15 AM 57.2 °F - 55.4 °F 94% 30.31 in 2.0 mi Calm Calm - N/A   Scattered Clouds
5:23 AM 57.2 °F - 55.4 °F 94% 30.31 in 6.0 mi Calm Calm - N/A   Scattered Clouds
5:53 AM 57.9 °F - 55.9 °F 93% 30.25 in 8.0 mi Calm Calm - N/A   Clear
6:51 AM 59.0 °F - 57.2 °F 94% 30.31 in 2.5 mi Calm Calm - N/A   Scattered Clouds
6:53 AM 57.9 °F - 57.0 °F 97% 30.26 in 1.8 mi Calm Calm - N/A   Mostly Cloudy
6:59 AM 57.2 °F - 57.2 °F 100% 30.31 in 0.2 mi Calm Calm - N/A Fog Fog
7:45 AM 59.0 °F - 57.2 °F 94% 30.32 in 1.0 mi West 3.5 mph - N/A   Mist
7:53 AM 59.0 °F - 57.9 °F 96% 30.27 in 2.5 mi WNW 3.5 mph - N/A   Overcast
8:01 AM 59.0 °F - 57.2 °F 94% 30.32 in 4.0 mi Calm Calm - N/A   Mostly Cloudy
8:12 AM 60.8 °F - 59.0 °F 94% 30.32 in 6.0 mi WNW 3.5 mph - N/A   Scattered Clouds
8:53 AM 61.0 °F - 60.1 °F 97% 30.28 in 9.0 mi Calm Calm - N/A   Clear
9:53 AM 68.0 °F - 62.1 °F 81% 30.28 in 10.0 mi WNW 4.6 mph - N/A   Clear
10:53 AM 72.0 °F - 60.1 °F 66% 30.28 in 10.0 mi Variable 3.5 mph - N/A   Partly Cloudy
11:53 AM 75.9 °F - 60.1 °F 58% 30.26 in 10.0 mi South 3.5 mph - N/A   Clear
12:53 PM 78.1 °F - 59.0 °F 52% 30.23 in 10.0 mi Calm Calm - N/A   Clear
1:53 PM 80.1 °F 80.9 °F 60.1 °F 50% 30.21 in 10.0 mi NE 4.6 mph - N/A   Clear
2:53 PM 82.0 °F 82.4 °F 60.1 °F 47% 30.18 in 10.0 mi East 4.6 mph - N/A   Clear
3:53 PM 82.0 °F 82.4 °F 60.1 °F 47% 30.16 in 10.0 mi Variable 3.5 mph - N/A   Clear
4:53 PM 82.9 °F 83.3 °F 61.0 °F 47% 30.13 in 10.0 mi Calm Calm - N/A   Clear
5:53 PM 82.0 °F 82.4 °F 60.1 °F 47% 30.12 in 10.0 mi Calm Calm - N/A   Clear
6:53 PM 80.1 °F 81.5 °F 63.0 °F 56% 30.11 in 10.0 mi SSW 5.8 mph - N/A   Clear
7:53 PM 75.0 °F - 64.0 °F 69% 30.10 in 10.0 mi South 3.5 mph - N/A   Clear
8:53 PM 72.0 °F - 64.0 °F 76% 30.10 in 10.0 mi Calm Calm - N/A   Clear
9:53 PM 72.0 °F - 64.0 °F 76% 30.11 in 10.0 mi South 3.5 mph - N/A   Clear
10:53 PM 71.1 °F - 63.0 °F 75% 30.12 in 10.0 mi SSW 3.5 mph - N/A   Clear
11:53 PM 69.1 °F - 63.0 °F 81% 30.12 in 10.0 mi Calm Calm - N/A   Clear